• In Czech Republic
  • List of Countries
  • For 7 days
  • Water Temperature
  • Satellite Maps
  • Weather Map
  • Weather Widgets
  • user-avatar
    Login

    Hourly Weather Saurimo

    Today, 22 October, Sunday

    Time Temperature Precipitation Wind Pressure Humidity
    00:00 +23°C° 1.2 mm 1 mps 670 mmHg 87%
    01:00 +22°C° 1.2 mm 1 mps 670 mmHg 92%
    02:00 +22°C° 0.5 mm 1 mps 670 mmHg 92%
    03:00 +22°C° 0.5 mm 1 mps 670 mmHg 92%
    04:00 +22°C° 0.5 mm 1 mps 670 mmHg 92%
    05:00 +23°C° 0.3 mm 1 mps 671 mmHg 89%
    06:00 +23°C° 0.3 mm 2 mps 671 mmHg 86%
    07:00 +24°C° 0.3 mm 2 mps 672 mmHg 83%
    08:00 +27°C° 0.9 mm 2 mps 672 mmHg 72%
    09:00 +29°C° 0.9 mm 2 mps 673 mmHg 61%
    10:00 +31°C° 0.9 mm 1 mps 673 mmHg 50%
    11:00 +33°C° 0 mm 1 mps 673 mmHg 45%
    12:00 +34°C° 0 mm 1 mps 672 mmHg 41%
    13:00 +33°C° 0 mm 0 mps 672 mmHg 36%
    14:00 +33°C° 0 mm 0 mps 671 mmHg 37%
    15:00 +32°C° 0 mm 0 mps 670 mmHg 39%
    16:00 +31°C° 0 mm 0 mps 670 mmHg 40%
    17:00 +28°C° 0 mm 0 mps 670 mmHg 45%
    18:00 +28°C° 0 mm 1 mps 669 mmHg 50%
    19:00 +26°C° 0 mm 1 mps 669 mmHg 56%
    20:00 +25°C° 0.6 mm 1 mps 670 mmHg 65%
    21:00 +24°C° 0.6 mm 2 mps 670 mmHg 75%
    22:00 +23°C° 0.6 mm 2 mps 670 mmHg 85%
    23:00 +21°C° 0 mm 2 mps 670 mmHg 88%

    Tomorrow, 23 October, Monday

    Time Temperature Precipitation Wind Pressure Humidity
    00:00 +21°C° 0 mm 2 mps 670 mmHg 90%
    01:00 +21°C° 0 mm 2 mps 669 mmHg 93%
    02:00 +22°C° 0 mm 1 mps 669 mmHg 94%
    03:00 +21°C° 0 mm 1 mps 669 mmHg 94%
    04:00 +21°C° 0 mm 1 mps 668 mmHg 95%
    05:00 +23°C° 0 mm 1 mps 669 mmHg 89%
    06:00 +24°C° 0 mm 1 mps 670 mmHg 83%
    07:00 +25°C° 0 mm 1 mps 670 mmHg 77%
    08:00 +29°C° 0 mm 1 mps 671 mmHg 62%
    09:00 +34°C° 0 mm 1 mps 672 mmHg 48%
    10:00 +36°C° 0 mm 0 mps 673 mmHg 33%
    11:00 +36°C° 0 mm 1 mps 672 mmHg 34%
    12:00 +35°C° 0 mm 1 mps 671 mmHg 35%
    13:00 +34°C° 0 mm 2 mps 669 mmHg 35%
    14:00 +34°C° 0 mm 2 mps 669 mmHg 36%
    15:00 +34°C° 0 mm 2 mps 669 mmHg 37%
    16:00 +34°C° 0 mm 2 mps 669 mmHg 38%
    17:00 +31°C° 0 mm 1 mps 669 mmHg 42%
    18:00 +29°C° 0 mm 1 mps 669 mmHg 47%
    19:00 +28°C° 0 mm 1 mps 669 mmHg 52%
    20:00 +27°C° 0 mm 1 mps 669 mmHg 56%
    21:00 +26°C° 0 mm 1 mps 669 mmHg 60%
    22:00 +25°C° 0 mm 1 mps 669 mmHg 64%
    23:00 +25°C° 0 mm 1 mps 669 mmHg 66%

    Day after tomorrow, 24 October, Tuesday

    Time Temperature Precipitation Wind Pressure Humidity
    00:00 +24°C° 0 mm 1 mps 669 mmHg 68%
    01:00 +24°C° 0 mm 1 mps 668 mmHg 70%
    02:00 +24°C° 0.1 mm 1 mps 668 mmHg 72%
    03:00 +23°C° 0.1 mm 1 mps 668 mmHg 74%
    04:00 +23°C° 0.1 mm 1 mps 668 mmHg 76%
    05:00 +24°C° 0.1 mm 1 mps 669 mmHg 75%
    06:00 +24°C° 0.1 mm 1 mps 670 mmHg 74%
    07:00 +25°C° 0.1 mm 2 mps 670 mmHg 73%
    08:00 +28°C° 0 mm 2 mps 671 mmHg 62%
    09:00 +31°C° 0 mm 2 mps 672 mmHg 51%
    10:00 +34°C° 0 mm 2 mps 672 mmHg 41%
    11:00 +35°C° 0 mm 2 mps 671 mmHg 38%
    12:00 +36°C° 0 mm 2 mps 671 mmHg 35%
    13:00 +35°C° 0 mm 1 mps 670 mmHg 32%
    14:00 +34°C° 0.2 mm 2 mps 669 mmHg 40%
    15:00 +31°C° 0.2 mm 2 mps 669 mmHg 49%
    16:00 +29°C° 0.2 mm 2 mps 668 mmHg 57%
    17:00 +27°C° 0.3 mm 2 mps 668 mmHg 64%
    18:00 +26°C° 0.3 mm 2 mps 669 mmHg 71%
    19:00 +24°C° 0.3 mm 2 mps 669 mmHg 78%
    20:00 +24°C° 0.3 mm 1 mps 670 mmHg 80%
    21:00 +23°C° 0.3 mm 1 mps 670 mmHg 82%
    22:00 +23°C° 0.3 mm 1 mps 670 mmHg 84%
    23:00 +23°C° 0 mm 1 mps 670 mmHg 86%

    25 October, Wednesday

    Time Temperature Precipitation Wind Pressure Humidity
    00:00 +21°C° 0 mm 2 mps 669 mmHg 87%
    01:00 +21°C° 0 mm 2 mps 669 mmHg 89%
    02:00 +21°C° 0 mm 2 mps 668 mmHg 90%
    03:00 +21°C° 0 mm 1 mps 668 mmHg 91%
    04:00 +21°C° 0 mm 1 mps 668 mmHg 93%
    05:00 +22°C° 0 mm 1 mps 669 mmHg 86%
    06:00 +23°C° 0 mm 1 mps 670 mmHg 80%
    07:00 +25°C° 0 mm 2 mps 671 mmHg 74%
    08:00 +28°C° 0 mm 2 mps 671 mmHg 62%
    09:00 +31°C° 0 mm 2 mps 672 mmHg 50%
    10:00 +35°C° 0 mm 2 mps 672 mmHg 38%
    11:00 +35°C° 0 mm 1 mps 671 mmHg 35%
    12:00 +37°C° 0 mm 1 mps 671 mmHg 32%
    13:00 +36°C° 0 mm 0 mps 670 mmHg 29%
    14:00 +35°C° 0 mm 0 mps 670 mmHg 33%
    15:00 +35°C° 0 mm 1 mps 669 mmHg 37%
    16:00 +33°C° 0 mm 1 mps 668 mmHg 41%
    17:00 +31°C° 0 mm 1 mps 669 mmHg 44%
    18:00 +30°C° 0 mm 1 mps 669 mmHg 48%
    19:00 +29°C° 0 mm 1 mps 669 mmHg 51%
    20:00 +27°C° 0 mm 1 mps 669 mmHg 56%
    21:00 +26°C° 0 mm 1 mps 669 mmHg 61%
    22:00 +25°C° 0 mm 1 mps 669 mmHg 66%
    23:00 +24°C° 0.5 mm 1 mps 669 mmHg 73%

    26 October, Thursday

    Time Temperature Precipitation Wind Pressure Humidity
    00:00 +23°C° 0.5 mm 2 mps 668 mmHg 80%
    01:00 +21°C° 0.5 mm 2 mps 668 mmHg 86%
    02:00 +21°C° 1.1 mm 2 mps 668 mmHg 89%
    03:00 +21°C° 1.1 mm 2 mps 669 mmHg 92%
    04:00 +20°C° 1.1 mm 2 mps 669 mmHg 95%
    05:00 +21°C° 0.1 mm 2 mps 670 mmHg 94%
    06:00 +21°C° 0.1 mm 2 mps 670 mmHg 92%
    07:00 +23°C° 0.1 mm 2 mps 671 mmHg 91%
    08:00 +25°C° 0.9 mm 2 mps 671 mmHg 84%
    09:00 +26°C° 0.9 mm 2 mps 671 mmHg 76%
    10:00 +28°C° 0.9 mm 2 mps 671 mmHg 69%
    11:00 +30°C° 0 mm 2 mps 671 mmHg 60%
    12:00 +31°C° 0 mm 2 mps 670 mmHg 51%
    13:00 +34°C° 0 mm 2 mps 669 mmHg 42%
    14:00 +32°C° 0 mm 2 mps 669 mmHg 43%
    15:00 +32°C° 0 mm 2 mps 669 mmHg 44%
    16:00 +32°C° 0 mm 2 mps 668 mmHg 46%
    17:00 +30°C° 0 mm 2 mps 668 mmHg 53%
    18:00 +28°C° 0 mm 2 mps 668 mmHg 60%
    19:00 +26°C° 0 mm 2 mps 668 mmHg 66%
    20:00 +25°C° 0 mm 2 mps 668 mmHg 70%
    21:00 +24°C° 0 mm 2 mps 668 mmHg 74%
    22:00 +24°C° 0 mm 2 mps 668 mmHg 78%
    23:00 +23°C° 0.8 mm 1 mps 668 mmHg 83%

    27 October, Friday

    Time Temperature Precipitation Wind Pressure Humidity
    00:00 +22°C° 0.8 mm 1 mps 668 mmHg 87%
    01:00 +21°C° 0.8 mm 1 mps 667 mmHg 92%
    02:00 +21°C° 1.1 mm 1 mps 668 mmHg 93%
    03:00 +21°C° 1.1 mm 1 mps 668 mmHg 94%
    04:00 +21°C° 1.1 mm 1 mps 668 mmHg 95%
    05:00 +22°C° 1.6 mm 1 mps 669 mmHg 94%
    06:00 +22°C° 1.6 mm 1 mps 670 mmHg 93%
    07:00 +23°C° 1.6 mm 1 mps 670 mmHg 92%
    08:00 +24°C° 1.1 mm 1 mps 670 mmHg 88%
    09:00 +25°C° 1.1 mm 1 mps 670 mmHg 85%
    10:00 +26°C° 1.1 mm 1 mps 670 mmHg 81%
    11:00 +27°C° 0.5 mm 1 mps 670 mmHg 75%
    12:00 +28°C° 0.5 mm 1 mps 669 mmHg 68%
    13:00 +29°C° 0.5 mm 1 mps 669 mmHg 61%
    14:00 +28°C° 0.9 mm 1 mps 669 mmHg 66%
    15:00 +27°C° 0.9 mm 1 mps 669 mmHg 71%
    16:00 +27°C° 0.9 mm 1 mps 668 mmHg 75%
    17:00 +25°C° 0.1 mm 1 mps 668 mmHg 80%
    18:00 +24°C° 0.1 mm 1 mps 668 mmHg 85%
    19:00 +23°C° 0.1 mm 1 mps 668 mmHg 89%
    20:00 +22°C° 0 mm 1 mps 668 mmHg 90%
    21:00 +22°C° 0 mm 1 mps 668 mmHg 91%
    22:00 +22°C° 0 mm 1 mps 668 mmHg 91%
    23:00 +22°C° 0 mm 1 mps 668 mmHg 92%
    Show more